Pascagoula, MS

7:50 PM CST on February 21, 2018 (GMT -0600)
Lott International

Weather History for KPQL - January, 2013

Change the Weather History Date:

Wednesday, January 30, 2013

  Actual Average Record
Temperature  
Mean Temperature 59 °F -  
Max Temperature 73 °F 61 °F 78 °F (1950)
Min Temperature 44 °F 44 °F 10 °F (1966)
Degree Days  
Heating Degree Days 6    
Growing Degree Days 9 (Base 50)    
Moisture  
Dew Point 55 °F    
Average Humidity 81    
Maximum Humidity 94    
Minimum Humidity 52    
Precipitation  
Precipitation 0.46 in - - ()
Sea Level Pressure  
Sea Level Pressure 29.83 in    
Wind  
Wind Speed 12 mph (West)    
Max Wind Speed 23 mph    
Max Gust Speed 36 mph    
Visibility 6 miles    
Events Rain    
Averages and records for this station are not official NWS values.
T = Trace of Precipitation, MM = Missing Value Source: NWS Daily Summary

Daily Weather History Graph

Daily Weather History Graph

Search for Another Location

Airport or City:

Trip Planner

Search our weather history database for the weather conditions in past years. The results will help you decide how hot, cold, wet, or windy it might be!

Date:

Astronomy

Jan. 30, 2013 Rise Set
Actual Time 6:46 AM CST 5:29 PM CST
Civil Twilight 6:20 AM CST 5:54 PM CST
Nautical Twilight 5:52 AM CST 6:23 PM CST
Astronomical Twilight 5:23 AM CST 6:51 PM CST
Moon 9:06 PM CST (1/30) 8:32 AM CST (1/30)
Length of Visible Light 11h 33m
Length of Day
10h 43m
Waning Gibbous, 87% of the Moon is Illuminated
Jan 30
Waning Gibbous
Feb 3
Last Quarter
Feb 10
New
Feb 17
First Quarter
Feb 25
Full

Hourly Weather History & Observations

Time (CST) Temp. Windchill Dew Point Humidity Pressure Visibility Wind Dir Wind Speed Gust Speed Precip Events Conditions
12:53 AM 72.0 °F - 70.0 °F 93% 29.86 in 5.0 mi South 10.4 mph 23.0 mph N/A   Overcast
1:53 AM 71.1 °F - 69.1 °F 93% 29.83 in 5.0 mi South 13.8 mph 25.3 mph N/A   Overcast
2:53 AM 72.0 °F - 69.1 °F 91% 29.80 in 6.0 mi South 13.8 mph 28.8 mph N/A   Overcast
3:53 AM 72.0 °F - 69.1 °F 91% 29.78 in 8.0 mi South 13.8 mph 23.0 mph N/A   Overcast
4:53 AM 72.0 °F - 69.1 °F 91% 29.77 in 8.0 mi South 13.8 mph 25.3 mph N/A   Overcast
5:53 AM 72.0 °F - 69.1 °F 91% 29.74 in 8.0 mi South 15.0 mph 24.2 mph N/A   Overcast
6:53 AM 72.0 °F - 68.0 °F 87% 29.73 in 8.0 mi South 16.1 mph 28.8 mph N/A   Overcast
7:53 AM 72.0 °F - 68.0 °F 87% 29.74 in 7.0 mi South 19.6 mph 33.4 mph N/A   Overcast
8:53 AM 73.0 °F - 68.0 °F 84% 29.75 in 7.0 mi South 19.6 mph 35.7 mph N/A   Overcast
9:06 AM 71.6 °F - 68.0 °F 88% 29.73 in 7.0 mi South 23.0 mph 32.2 mph N/A   Overcast
9:53 AM 72.0 °F - 68.0 °F 87% 29.73 in 5.0 mi South 18.4 mph 31.1 mph 0.01 in   Overcast
10:43 AM 66.2 °F - 60.8 °F 83% 29.75 in 2.5 mi West 11.5 mph 31.1 mph 0.06 in   Haze
10:47 AM 64.4 °F - 60.8 °F 88% 29.76 in 1.5 mi WNW 8.1 mph 24.2 mph 0.08 in   Overcast
10:53 AM 63.0 °F - 60.1 °F 90% 29.77 in 1.8 mi Variable 6.9 mph 17.3 mph 0.11 in   Overcast
11:04 AM 60.8 °F - 57.2 °F 88% 29.77 in 2.5 mi West 11.5 mph 20.7 mph 0.05 in   Overcast
11:11 AM 60.8 °F - 57.2 °F 88% 29.77 in 4.0 mi West 6.9 mph 18.4 mph 0.06 in   Overcast
11:29 AM 60.8 °F - 57.2 °F 88% 29.77 in 7.0 mi WNW 5.8 mph - 0.06 in Rain Light Rain
11:42 AM 59.0 °F - 57.2 °F 94% 29.78 in 1.8 mi West 8.1 mph - 0.13 in Rain Heavy Rain
11:47 AM 59.0 °F - 57.2 °F 94% 29.78 in 0.8 mi WNW 8.1 mph - 0.19 in Rain Heavy Rain
11:53 AM 55.9 °F - 54.0 °F 93% 29.80 in 1.0 mi NW 10.4 mph 21.9 mph 0.22 in Rain Heavy Rain
11:57 AM 55.4 °F - 51.8 °F 88% 29.79 in 2.0 mi WNW 11.5 mph 21.9 mph 0.02 in Rain Heavy Rain
12:01 PM 53.6 °F - 51.8 °F 94% 29.79 in 3.0 mi WNW 9.2 mph 20.7 mph 0.03 in Rain Heavy Rain
12:23 PM 53.6 °F - 51.8 °F 94% 29.78 in 2.5 mi WNW 4.6 mph - 0.10 in Rain Heavy Rain
12:30 PM 53.6 °F - 51.8 °F 94% 29.78 in 4.0 mi NW 5.8 mph - 0.10 in Rain Rain
12:53 PM 54.0 °F - 51.1 °F 90% 29.80 in 8.0 mi West 3.5 mph - 0.12 in Rain Light Rain
2:53 PM 57.9 °F - 51.1 °F 78% 29.80 in 10.0 mi West 8.1 mph - N/A   Overcast
3:53 PM 57.0 °F - 51.1 °F 81% 29.82 in 10.0 mi Variable 5.8 mph - 0.00 in Rain Light Rain
4:53 PM 57.0 °F - 43.0 °F 59% 29.85 in 10.0 mi West 6.9 mph - 0.00 in   Overcast
5:53 PM 55.9 °F - 41.0 °F 57% 29.88 in 10.0 mi West 6.9 mph - N/A   Scattered Clouds
6:53 PM 53.1 °F - 36.0 °F 52% 29.95 in 10.0 mi WNW 6.9 mph 17.3 mph N/A   Clear
7:53 PM 52.0 °F - 36.0 °F 54% 29.99 in 10.0 mi WNW 6.9 mph - N/A   Clear
8:53 PM 50.0 °F - 34.0 °F 54% 30.05 in 10.0 mi WNW 12.7 mph 31.1 mph N/A   Clear
9:53 PM 46.9 °F - 30.9 °F 54% 30.09 in 10.0 mi NW 10.4 mph 23.0 mph N/A   Clear
10:53 PM 45.0 °F 40.6 °F 30.0 °F 56% 30.13 in 10.0 mi NW 8.1 mph 17.3 mph N/A   Clear
11:53 PM 44.1 °F 39.5 °F 30.0 °F 58% 30.14 in 10.0 mi NW 8.1 mph - N/A   Clear